CW4621 Weather Reports


time (UTC)temp
C
wind
direction
speed
KPH
gust
KPH
rain 1hr
cm
rain 24hr
cm
rain mn
cm
humidity
%
barometer
mb
20260505065604 16 184 1.6 4.8 0.00 0.00 0.00 67 1009.9
20260505065104 16 135 0.0 4.8 0.00 0.00 0.00 66 1009.8
20260505064605 16 110 1.6 8.0 0.00 0.00 0.00 66 1009.8
20260505064105 16 148 1.6 4.8 0.00 0.00 0.00 66 1009.8
20260505063605 16 152 0.0 4.8 0.00 0.00 0.00 65 1009.8
20260505063104 16 109 1.6 3.2 0.00 0.00 0.00 64 1009.8
20260505062605 16 174 0.0 4.8 0.00 0.00 0.00 64 1009.8
20260505062104 16 140 1.6 11.3 0.00 0.00 0.00 63 1009.9
20260505061604 16 136 1.6 4.8 0.00 0.00 0.00 63 1009.9
20260505061105 16 196 1.6 9.7 0.00 0.00 0.00 63 1009.9
20260505060604 16 124 1.6 8.0 0.00 0.00 0.00 62 1009.9
20260505060104 16 155 1.6 4.8 0.00 0.00 0.00 62 1009.9
20260505055604 16 134 1.6 4.8 0.00 0.00 0.00 62 1009.9
20260505055104 16 138 1.6 4.8 0.00 0.00 0.00 62 1010.0
20260505054604 16 117 1.6 4.8 0.00 0.00 0.00 62 1010.0
20260505054104 16 124 1.6 4.8 0.00 0.00 0.00 62 1010.1
20260505053605 17 107 1.6 4.8 0.00 0.00 0.00 61 1010.2
20260505053104 17 115 3.2 9.7 0.00 0.00 0.00 61 1010.1
20260505052605 16 110 1.6 8.0 0.00 0.00 0.00 61 1010.1
20260505052105 16 160 1.6 4.8 0.00 0.00 0.00 61 1010.1
20260505051605 17 174 1.6 4.8 0.00 0.00 0.00 61 1010.1
20260505051105 16 173 1.6 11.3 0.00 0.00 0.00 61 1010.1
20260505050605 16 124 1.6 11.3 0.00 0.00 0.00 61 1010.0
20260505050104 16 109 1.6 4.8 0.00 0.00 0.00 61 1010.0
20260505041604 16 145 3.2 11.3 0.00 0.00 0.00 60 1010.1
20260505041105 16 123 1.6 8.0 0.00 0.00 0.00 60 1010.1
20260505040604 17 139 1.6 12.9 0.00 0.00 0.00 60 1010.2
20260505040105 17 127 1.6 9.7 0.00 0.00 0.00 60 1010.2
20260505035604 17 154 4.8 12.9 0.00 0.00 0.00 60 1010.1
20260505034604 16 141 3.2 8.0 0.00 0.00 0.00 61 1010.1
20260505033604 16 128 3.2 11.3 0.00 0.00 0.00 60 1010.1
20260505033105 17 134 1.6 9.7 0.00 0.00 0.00 60 1010.0
20260505032605 17 118 3.2 16.1 0.00 0.00 0.00 60 1010.1
20260505032105 16 120 3.2 12.9 0.00 0.00 0.00 60 1009.9
20260505031606 17 85 3.2 11.3 0.00 0.00 0.00 60 1010.0
20260505031105 17 123 1.6 8.0 0.00 0.00 0.00 60 1010.1
20260505030605 17 172 1.6 11.3 0.00 0.00 0.00 60 1010.2
20260505025605 17 94 1.6 8.0 0.00 0.00 0.00 59 1010.3
20260505025105 17 145 3.2 9.7 0.00 0.00 0.00 59 1010.4
20260505024605 17 138 1.6 9.7 0.00 0.00 0.00 59 1010.4
20260505024105 17 134 1.6 9.7 0.00 0.00 0.00 58 1010.4
20260505023605 17 134 3.2 11.3 0.00 0.00 0.00 57 1010.4
20260505023105 17 109 1.6 4.8 0.00 0.00 0.00 57 1010.4
20260505022604 17 142 1.6 11.3 0.00 0.00 0.00 56 1010.4
20260505022104 17 133 1.6 4.8 0.00 0.00 0.00 56 1010.4
20260505021105 17 126 4.8 11.3 0.00 0.00 0.00 54 1010.4
20260505020605 17 124 3.2 9.7 0.00 0.00 0.00 53 1010.4
20260505020105 17 132 3.2 11.3 0.00 0.00 0.00 53 1010.4
20260505015105 17 140 3.2 8.0 0.00 0.00 0.00 51 1010.4
20260505014604 17 116 1.6 4.8 0.00 0.00 0.00 51 1010.4
20260505013605 17 127 0.0 3.2 0.00 0.00 0.00 50 1010.4
20260505013105 17 123 1.6 4.8 0.00 0.00 0.00 49 1010.4
20260505012605 17 128 0.0 4.8 0.00 0.00 0.00 48 1010.3
20260505012105 17 121 0.0 4.8 0.00 0.00 0.00 48 1010.2
20260505011606 18 129 1.6 3.2 0.00 0.00 0.00 47 1010.2
20260505011105 18 121 0.0 3.2 0.00 0.00 0.00 47 1010.2
20260505010604 18 123 1.6 3.2 0.00 0.00 0.00 46 1010.1
20260505010105 18 79 1.6 4.8 0.00 0.00 0.00 46 1010.0
20260505005605 18 142 3.2 8.0 0.00 0.00 0.00 45 1010.0
20260505004105 18 132 1.6 4.8 0.00 0.00 0.00 44 1009.8
20260505003104 19 126 3.2 4.8 0.00 0.00 0.00 43 1009.7
20260505002606 19 128 1.6 4.8 0.00 0.00 0.00 43 1009.7
20260505001105 20 118 1.6 3.2 0.00 0.00 0.00 41 1009.6
20260505000605 20 115 1.6 3.2 0.00 0.00 0.00 41 1009.5
20260505000105 20 98 0.0 4.8 0.00 0.00 0.00 41 1009.5
20260504235605 20 120 1.6 4.8 0.00 0.00 0.00 40 1009.5
20260504235105 20 112 0.0 3.2 0.00 0.00 0.00 39 1009.5
20260504234604 20 91 0.0 3.2 0.00 0.00 0.00 38 1009.4
20260504234104 21 141 1.6 4.8 0.00 0.00 0.00 38 1009.4
20260504233105 21 120 0.0 4.8 0.00 0.00 0.00 38 1009.3
20260504232606 21 115 1.6 4.8 0.00 0.00 0.00 37 1009.3
20260504232104 21 155 1.6 8.0 0.00 0.00 0.00 37 1009.3
20260504231604 21 181 3.2 16.1 0.00 0.00 0.00 36 1009.3
20260504231104 21 136 3.2 12.9 0.00 0.00 0.00 36 1009.3
20260504230605 22 64 1.6 8.0 0.00 0.00 0.00 36 1009.3
20260504230104 22 133 1.6 14.5 0.00 0.00 0.00 35 1009.3
20260504225605 22 140 1.6 9.7 0.00 0.00 0.00 36 1009.3
20260504225105 22 207 1.6 3.2 0.00 0.00 0.00 35 1009.3
20260504224605 22 143 3.2 8.0 0.00 0.00 0.00 34 1009.3
20260504224105 22 193 1.6 4.8 0.00 0.00 0.00 34 1009.2
20260504223605 22 151 3.2 20.9 0.00 0.00 0.00 34 1009.2
20260504223105 22 124 4.8 12.9 0.00 0.00 0.00 33 1009.2
20260504222605 22 196 4.8 9.7 0.00 0.00 0.00 34 1009.3
20260504222105 22 168 3.2 8.0 0.00 0.00 0.00 33 1009.3
20260504221104 23 177 4.8 14.5 0.00 0.00 0.00 32 1009.3
20260504220604 23 70 3.2 11.3 0.00 0.00 0.00 32 1009.4
20260504220105 23 187 3.2 12.9 0.00 0.00 0.00 32 1009.4
20260504215605 23 147 4.8 14.5 0.00 0.00 0.00 31 1009.4
20260504215105 23 166 3.2 4.8 0.00 0.00 0.00 31 1009.3
20260504214605 23 103 3.2 12.9 0.00 0.00 0.00 32 1009.4
20260504214105 23 184 8.0 16.1 0.00 0.00 0.00 31 1009.4
20260504213604 23 170 6.4 11.3 0.00 0.00 0.00 30 1009.4
20260504213104 23 196 3.2 11.3 0.00 0.00 0.00 32 1009.4
20260504212605 23 171 3.2 9.7 0.00 0.00 0.00 32 1009.4
20260504211605 23 232 6.4 14.5 0.00 0.00 0.00 31 1009.3
20260504211104 23 158 4.8 9.7 0.00 0.00 0.00 31 1009.3
20260504204605 23 186 6.4 16.1 0.00 0.00 0.00 31 1009.4
20260504204104 23 187 8.0 16.1 0.00 0.00 0.00 30 1009.5
20260504203604 23 311 4.8 9.7 0.00 0.00 0.00 31 1009.4
20260504203105 23 196 4.8 11.3 0.00 0.00 0.00 31 1009.4
20260504202605 23 168 4.8 19.3 0.00 0.00 0.00 31 1009.3
20260504202105 23 146 4.8 14.5 0.00 0.00 0.00 31 1009.4
20260504201605 23 137 4.8 19.3 0.00 0.00 0.00 32 1009.4
20260504201104 23 182 4.8 19.3 0.00 0.00 0.00 30 1009.5
20260504200604 23 179 4.8 19.3 0.00 0.00 0.00 31 1009.5
20260504200105 23 157 6.4 12.9 0.00 0.00 0.00 31 1009.5
20260504195605 23 172 6.4 19.3 0.00 0.00 0.00 30 1009.6
20260504195106 23 163 4.8 19.3 0.00 0.00 0.00 31 1009.7
20260504194605 23 203 4.8 14.5 0.00 0.00 0.00 30 1009.8
20260504194104 23 40 3.2 16.1 0.00 0.00 0.00 31 1009.8
20260504193605 23 150 4.8 16.1 0.00 0.00 0.00 31 1010.0
20260504193105 23 180 4.8 11.3 0.00 0.00 0.00 33 1010.0
20260504192605 23 160 3.2 9.7 0.00 0.00 0.00 31 1010.0
20260504192104 23 281 4.8 12.9 0.00 0.00 0.00 35 1010.1
20260504191604 23 96 4.8 19.3 0.00 0.00 0.00 30 1010.1
20260504191104 23 168 6.4 19.3 0.00 0.00 0.00 31 1010.2
20260504190604 23 169 3.2 14.5 0.00 0.00 0.00 33 1010.3
20260504190104 23 36 4.8 19.3 0.00 0.00 0.00 32 1010.3
20260504185605 22 193 6.4 16.1 0.00 0.00 0.00 31 1010.4
20260504185105 22 207 4.8 12.9 0.00 0.00 0.00 31 1010.4
20260504184604 23 169 4.8 16.1 0.00 0.00 0.00 31 1010.6
20260504184104 23 214 4.8 14.5 0.00 0.00 0.00 33 1010.7
20260504183604 22 172 3.2 8.0 0.00 0.00 0.00 34 1010.7
20260504183105 22 188 4.8 12.9 0.00 0.00 0.00 31 1010.8
20260504182604 22 153 4.8 14.5 0.00 0.00 0.00 33 1011.0
20260504182104 22 194 6.4 19.3 0.00 0.00 0.00 32 1011.1
20260504181604 22 180 4.8 19.3 0.00 0.00 0.00 33 1011.1
20260504181104 22 160 4.8 16.1 0.00 0.00 0.00 33 1011.2
20260504180105 22 181 4.8 16.1 0.00 0.00 0.00 34 1011.3
20260504175604 22 113 4.8 19.3 0.00 0.00 0.00 31 1011.4
20260504175105 22 150 3.2 16.1 0.00 0.00 0.00 33 1011.5
20260504174604 22 169 3.2 14.5 0.00 0.00 0.00 34 1011.6
20260504174104 22 181 8.0 12.9 0.00 0.00 0.00 32 1011.6
20260504173605 22 173 8.0 12.9 0.00 0.00 0.00 31 1011.6
20260504173105 22 180 8.0 12.9 0.00 0.00 0.00 33 1011.8
20260504172604 22 197 3.2 12.9 0.00 0.00 0.00 34 1011.7
20260504172105 22 186 3.2 11.3 0.00 0.00 0.00 33 1011.8
20260504171605 22 145 3.2 12.9 0.00 0.00 0.00 35 1011.9
20260504171104 22 162 3.2 16.1 0.00 0.00 0.00 35 1012.0
20260504170605 21 119 3.2 9.7 0.00 0.00 0.00 33 1011.9
20260504170105 21 182 4.8 14.5 0.00 0.00 0.00 33 1012.1
20260504160104 21 202 4.8 16.1 0.00 0.00 0.00 32 1012.9
20260504151104 19 6 3.2 14.5 0.00 0.00 0.00 42 1013.3
20260504150606 19 209 4.8 11.3 0.00 0.00 0.00 42 1013.3
20260504150105 19 191 4.8 12.9 0.00 0.00 0.00 43 1013.3
20260504140604 17 195 4.8 12.9 0.00 0.00 0.00 49 1013.5
20260504140105 17 184 4.8 9.7 0.00 0.00 0.00 51 1013.5
20260504130604 15 129 4.8 11.3 0.00 0.00 0.00 55 1013.9
20260504130105 15 170 4.8 9.7 0.00 0.00 0.00 56 1014.0
20260504120105 11 112 0.0 9.7 0.00 0.00 0.00 70 1014.5
20260504110604 8 146 0.0 3.2 0.00 0.00 0.00 73 1014.7
20260504110105 7 127 1.6 3.2 0.00 0.00 0.00 74 1014.8
20260504090104 9 126 0.0 1.6 0.00 0.00 0.00 65 1014.6
20260504081104 8 233 1.6 4.8 0.00 0.00 0.00 64 1014.5
20260504080605 8 141 1.6 3.2 0.00 0.00 0.00 64 1014.6
20260504080104 8 114 1.6 1.6 0.00 0.00 0.00 63 1014.6
20260504070104 6 127 0.0 1.6 0.00 0.00 0.00 65 1014.3